Weather History for Victoria, TX

Change the Weather History Date:

Saturday, March 2, 2013

  Actual Average Record
Temperature  
Mean Temperature 49 °F 60 °F  
Max Temperature 63 °F 71 °F 95 °F (1909)
Min Temperature 34 °F 50 °F 21 °F (1980)
Degree Days  
Heating Degree Days 16 6  
Month to date heating degree days 28 12  
Since 1 July heating degree days 843 1105  
Cooling Degree Days 0 2  
Month to date cooling degree days 0 3  
Year to date cooling degree days 59 41  
Moisture  
Dew Point 27 °F    
Average Humidity 48    
Maximum Humidity 76    
Minimum Humidity 19    
Precipitation  
Precipitation 0.00 in 0.08 in 0.78 in (2001)
Month to date precipitation 0.00 0.16  
Year to date precipitation 4.09 4.76  
Snow  
Snow 0.00 in - - ()
Month to date snowfall 0.0  
Since 1 July snowfall 0.0  
Snow Depth 0.00 in    
Sea Level Pressure  
Sea Level Pressure 30.33 in    
Wind  
Wind Speed 11 mph (North)    
Max Wind Speed 26 mph    
Max Gust Speed 35 mph    
Visibility 10 miles    
Events      
T = Trace of Precipitation, MM = Missing Value Source: NWS Daily Summary

Daily Weather History Graph

Daily Weather History Graph

Search for Another Location

Airport:

Trip Planner

Search our weather history database for the weather conditions in past years. The results will help you decide how hot, cold, wet, or windy it might be!

Date:

Astronomy

Mar. 02, 2013 Rise Set
Actual Time 6:51 AM CST 6:28 PM CST
Civil Twilight 6:27 AM CST 6:52 PM CST
Nautical Twilight 6:00 AM CST 7:19 PM CST
Astronomical Twilight 5:32 AM CST 7:47 PM CST
Moon 11:38 PM CST (3/2) 9:48 AM CST (3/2)
Length of Visible Light 12h 24m
Length of Day
11h 36m
Waning Gibbous, 74% of the Moon is Illuminated
Mar 2
Waning Gibbous
Mar 4
Last Quarter
Mar 11
New
Mar 19
First Quarter
Mar 27
Full

Hourly Weather History & Observations

Time (CST) Temp. Windchill Dew Point Humidity Pressure Visibility Wind Dir Wind Speed Gust Speed Precip Events Conditions
12:51 AM 42.1 °F 40.2 °F 35.1 °F 76% 30.27 in 10.0 mi East 3.5 mph - N/A   Clear
1:51 AM 43.0 °F 37.7 °F 32.0 °F 65% 30.29 in 10.0 mi North 9.2 mph - N/A   Clear
2:51 AM 37.0 °F 30.4 °F 30.9 °F 79% 30.28 in 10.0 mi NNW 9.2 mph - N/A   Clear
3:51 AM 41.0 °F 35.2 °F 32.0 °F 70% 30.30 in 10.0 mi NNW 9.2 mph - N/A   Clear
4:51 AM 42.1 °F 37.7 °F 32.0 °F 67% 30.32 in 10.0 mi NNW 6.9 mph - N/A   Clear
5:51 AM 39.9 °F 34.5 °F 32.0 °F 73% 30.34 in 10.0 mi NNW 8.1 mph - N/A   Clear
6:51 AM 37.0 °F 31.6 °F 30.9 °F 79% 30.37 in 10.0 mi NNW 6.9 mph - N/A   Clear
7:51 AM 43.0 °F 38.2 °F 33.1 °F 68% 30.40 in 10.0 mi NNW 8.1 mph - N/A   Clear
8:51 AM 48.0 °F - 30.9 °F 52% 30.42 in 10.0 mi North 17.3 mph 23.0 mph N/A   Clear
9:51 AM 51.1 °F - 30.0 °F 44% 30.43 in 10.0 mi NNW 17.3 mph - N/A   Clear
10:51 AM 54.0 °F - 26.1 °F 34% 30.42 in 10.0 mi North 16.1 mph 25.3 mph N/A   Clear
11:51 AM 55.9 °F - 25.0 °F 30% 30.40 in 10.0 mi NNW 19.6 mph 25.3 mph N/A   Clear
12:51 PM 59.0 °F - 24.1 °F 26% 30.37 in 10.0 mi NNW 21.9 mph 29.9 mph N/A   Clear
1:51 PM 62.1 °F - 23.0 °F 22% 30.33 in 10.0 mi NNW 20.7 mph 27.6 mph N/A   Clear
2:51 PM 62.1 °F - 21.0 °F 21% 30.31 in 10.0 mi North 20.7 mph 31.1 mph N/A   Clear
3:51 PM 62.1 °F - 21.0 °F 21% 30.30 in 10.0 mi North 18.4 mph 26.5 mph N/A   Clear
4:51 PM 62.1 °F - 19.0 °F 19% 30.29 in 10.0 mi North 16.1 mph 26.5 mph N/A   Clear
5:51 PM 60.1 °F - 19.9 °F 21% 30.28 in 10.0 mi North 11.5 mph - N/A   Clear
6:51 PM 52.0 °F - 23.0 °F 32% 30.30 in 10.0 mi NNE 5.8 mph - N/A   Clear
7:51 PM 46.9 °F - 25.0 °F 42% 30.30 in 10.0 mi North - - N/A   Clear
8:51 PM 46.9 °F - 25.0 °F 42% 30.31 in 10.0 mi ESE 4.6 mph - N/A   Clear
9:51 PM 45.0 °F 41.2 °F 27.0 °F 49% 30.32 in 10.0 mi ESE 6.9 mph - N/A   Clear
10:51 PM 42.1 °F 40.2 °F 26.1 °F 53% 30.31 in 10.0 mi SE 3.5 mph - N/A   Clear
11:51 PM 43.0 °F 40.3 °F 25.0 °F 49% 30.30 in 10.0 mi ESE 4.6 mph - N/A   Clear